Terminal Aerodrome Forecast
Issued by NWS Jackson, MS

Home | Current Version | Previous Version | Text Only | Print | Product List | Glossary On
Versions: 1 2 3 4 5 6 7 8 9 10 11 12 13 14
000
FTUS44 KJAN 270500
TAFHBG
TAF
KHBG 270520Z 2706/2806 28005KT P6SM SKC
     FM270800 32006KT P6SM SKC
     FM280000 01003KT P6SM SKC=

USA.gov is the U.S. government's official web portal to all federal, state and local government web resources and services.